Location: Auckland
(36.8670°S, 174.7670°E)
Time: 02:55:25
(UTC+12:00)

Cosmos 1486 Rocket - Pass Details

Date: 24 January 2019
Orbit: 759 x 783 km, 74.1° (Epoch: 19 April)

Event Time Altitude Azimuth Distance (km) Brightness Sun altitude
Exits shadow 22:37:21 13° 340° (NNW) 2,071 6.0 -20.3°
Maximum altitude 22:42:00 83° 252° (WSW) 782 4.0 -20.9°
Drops below altitude 10° 22:47:18 10° 164° (SSE) 2,334 6.9 -21.7°
Sets 22:49:43 0° 163° (SSE) 3,271 7.7 -22.0°
